Location: ?ern� Novina
(50.6762°N, 14.8696°E)
Time: 18:00:01
(UTC+00:00)

Cosmos 1500 - Pass Details

Date: 03 March 2021
Orbit: 499 x 517 km, 82.5° (Epoch: 12 April)

Event Time Altitude Azimuth Distance (km) Brightness Sun altitude
Rises 17:13:26 0° 152° (SSE) 2,582 6.5 -5.2°
Reaches altitude 10° 17:15:57 10° 135° (SE) 1,704 5.4 -5.6°
Maximum altitude 17:18:41 20° 88° (E) 1,219 4.5 -6.1°
Drops below altitude 10° 17:21:26 10° 40° (NE) 1,716 5.4 -6.5°
Sets 17:23:58 0° 23° (NNE) 2,607 6.5 -6.9°
